Location: Voyageurs National Park
(48.5020°N, 92.9292°W)
Time: 17:12:08
(UTC-05:00)

Daily predictions for brighter satellites

Satellite Brightness Start Highest point End
(mag) Time Altitude Azimuth Time Altitude Azimuth Time Altitude Azimuth
METEOR-M 4.4 19:18:18 10° SE 19:23:23 47° ENE 19:28:30 10° N
Cosmos 1378 3.1 19:20:44 10° N 19:24:28 70° E 19:28:11 10° SSE
ERBS 4.2 19:22:05 10° NW 19:24:52 22° N 19:27:39 10° ENE
Cosmos 1076 Rocket 3.7 19:20:51 10° N 19:25:06 52° ENE 19:29:20 10° SSE
NOSS 3-2 (C) 3.9 19:19:32 10° S 19:25:13 42° ESE 19:31:24 10° NE
Intercosmos 25 Rocket 4.3 19:19:50 10° S 19:26:43 84° W 19:30:58 10° N
Cosmos 292 Rocket 4.1 19:23:03 10° SSW 19:27:51 76° WNW 19:32:44 10° NNE
Spot 1 4.4 19:25:21 10° SE 19:29:50 49° ENE 19:34:05 10° N
Spot 2 Rocket 3.8 19:25:34 10° SE 19:30:22 47° ENE 19:35:12 10° N
SAR-Lupe-4 3.5 19:27:08 10° SSE 19:30:42 83° ENE 19:34:18 10° NNW
Cosmos 2219 Rocket 3.4 19:27:12 10° SW 19:32:35 45° NW 19:38:03 10° NNE
Cosmos 2056 Rocket 4.4 19:28:07 10° NNW 19:33:27 56° WSW 19:38:44 10° S
ATLAS CENTAUR R/B 4.1 19:32:12 10° WNW 19:35:25 21° WSW 19:38:28 10° SSW
Meteor 1-28 Rocket 3.5 19:32:01 10° NNE 19:35:37 44° E 19:39:11 10° S
Cosmos-2242 3.8 19:32:40 10° SSE 19:36:29 30° E 19:40:19 10° NNE
FENGYUN 3A 4.4 19:32:23 10° SE 19:37:10 34° ENE 19:41:58 10° N
Cosmos 2278 Rocket 4.4 19:32:41 10° NW 19:37:28 29° WSW 19:42:14 10° SSW
Cosmos 192 4.5 19:33:00 10° S 19:37:48 52° ESE 19:42:38 10° NNE
Cosmos 2034 Rocket 4.3 19:33:21 10° SSE 19:39:16 46° E 19:45:17 10° NNE
Cosmos 1464 Rocket 4.0 19:34:14 10° S 19:40:21 61° E 19:46:26 10° NNE
CZ-4C R/B 2.8 19:36:12 10° SW 19:41:38 64° NW 19:47:53 10° NE
H-2A R/B 4.0 19:39:43 10° ESE 19:42:48 23° ENE 19:45:52 10° NNE
Cosmos 1805 3.8 19:40:03 10° SSE 19:43:39 35° E 19:47:17 10° NNE
Cosmos 1953 2.8 19:41:19 10° SSE 19:45:00 38° E 19:48:43 10° NNE
BREEZE-M DEB (TANK) 4.4 19:27:57 10° W 19:47:26 76° S 19:52:03 13° E
ALOS 2.8 19:44:37 10° SE 19:48:55 38° ENE 19:53:14 10° N
SKYMED 2 4.1 19:44:55 10° N 19:49:15 64° WNW 19:53:31 10° SSW
HJ-1C 3.4 19:47:27 10° SSE 19:50:45 62° ENE 19:54:07 10° N
Cosmos 1408 Rocket 3.5 19:47:51 10° N 19:52:14 86° E 19:56:34 10° S
Cosmos 1500 Rocket 4.3 19:48:28 10° N 19:52:27 32° ENE 19:56:27 10° SE
Cosmos 1943 Rocket 3.5 19:50:22 10° N 19:54:46 23° NE 19:58:06 14° E
Cosmos 2369 Rocket 2.8 19:49:48 10° NNW 19:55:07 40° NE 19:59:45 13° ESE
Meteor 1-22 Rocket 4.3 19:49:55 10° SSW 19:55:15 79° WNW 20:00:34 10° N
USA 215 3.8 19:51:29 10° ENE 19:57:29 37° SE 20:03:26 10° SSW
Cosmos 1943 4.3 19:56:18 10° SE 20:00:15 20° E 20:04:12 10° NE
USA 186 3.2 20:01:16 14° NE 20:01:16 14° NE 20:02:07 10° NNE
Cosmos 1603 4.0 19:59:36 10° S 20:05:03 46° ESE 20:10:33 10° NE
Aureole 2 Rocket 3.6 20:01:31 10° SW 20:05:50 59° WNW 20:10:00 10° NNE
Cosmos 1470 3.7 20:03:53 10° SSE 20:07:11 27° E 20:10:29 10° NNE
Cosmos 1733 4.3 20:08:47 18° SE 20:10:28 24° E 20:13:38 10° NE
SeaSat 1 4.5 20:15:13 11° SE 20:15:13 11° SE 20:15:26 10° SSE
Meteor 1-29 3.1 20:08:48 10° NNE 20:12:15 51° E 20:15:40 10° S
SJ-6B 4.4 20:11:04 10° SSW 20:14:50 39° W 20:18:43 10° NNW
FREGAT/IRIS 4.3 20:12:19 10° SSW 20:15:14 37° W 20:18:09 10° NNW
ATLAS 3B R/B 4.2 20:09:36 10° W 20:16:30 37° NNW 20:23:09 10° NE
CZ-4B DEB 2.8 20:14:31 15° SSE 20:17:08 61° ENE 20:20:23 10° N
ERS-1 Rocket 4.1 20:15:21 21° E 20:17:14 26° ENE 20:21:21 10° N
Cosmos 1674 2.8 20:14:17 10° N 20:18:08 56° ENE 20:21:24 14° SSE
Resurs 1-3 3.6 20:13:50 10° SSE 20:18:14 86° WSW 20:22:40 10° NNW
Helios 1A 3.2 20:14:42 10° S 20:18:54 74° WSW 20:23:09 10° NNW
Cosmos 724 4.3 20:14:20 10° SSW 20:20:12 62° ESE 20:26:15 10° NE
Cosmos 2333 Rocket 4.2 20:15:35 10° WSW 20:20:35 30° NW 20:25:37 10° NNE
Cosmos 1743 Rocket 3.5 20:16:59 10° N 20:21:28 84° E 20:25:53 10° S
Resurs 01 Rocket 2.1 20:17:12 10° S 20:21:37 64° WSW 20:26:04 10° NNW
Cosmos 1758 3.6 20:24:01 10° SSW 20:28:06 72° W 20:32:13 10° N
Abrixas 4.3 20:28:03 10° SSW 20:29:32 19° S 20:29:32 19° S
Cosmos 1346 3.9 20:28:43 10° NNW 20:31:38 49° W 20:34:31 10° S
FengYun 1-2 T 4.4 20:26:32 10° S 20:32:01 72° WSW 20:37:32 10° NNW
NOSS 3-2 (A) 3.9 20:30:36 10° SW 20:36:46 68° NW 20:43:38 10° NE
Cosmos 839 Rocket 4.3 20:31:47 10° NW 20:39:56 81° NE 20:44:15 24° SE
ATLAS 5 CENTAUR R/B 2.0 20:35:21 10° SW 20:40:13 78° NW 20:45:36 10° NE
Cosmos 2237 Rocket 4.4 20:36:35 10° W 20:41:13 25° NW 20:45:53 10° N
Nadezhda 4 Rocket 4.2 20:36:29 10° NNW 20:42:46 72° W 20:48:56 10° S
GP-B 3.1 20:39:31 10° N 20:43:55 55° E 20:45:48 31° SSE
Cosmos 2279 Rocket 4.5 20:46:27 32° ESE 20:47:54 36° E 20:53:28 10° NNE
ASTEX 1 3.3 20:44:05 10° N 20:49:02 89° E 20:53:56 10° S
Cosmos 1092 Rocket 4.0 20:44:34 10° N 20:50:50 84° W 20:56:59 10° S
Helios 1B rocket 3.3 20:47:58 10° N 20:51:58 50° WNW 20:55:56 10° SW
Cosmos 1328 3.6 20:48:30 10° N 20:52:28 70° E 20:53:08 56° SE
Cosmos 1331 Rocket 4.1 20:47:53 10° NNW 20:53:08 56° ENE 20:54:37 42° ESE
Cosmos 1655 Rocket 4.0 20:47:00 10° N 20:53:08 57° ENE 20:55:58 32° SE
Cosmos 1544 4.1 20:52:25 10° SSW 20:56:03 48° WNW 20:59:43 10° N
Cosmos 1939 Rocket 3.5 20:57:56 39° NE 20:57:56 39° NE 21:01:08 10° N
SL-14 R/B 3.6 20:56:31 10° N 21:00:01 49° NE 21:00:01 49° NE
Cosmos 2142 Rocket 4.4 20:55:16 10° S 21:01:35 70° E 21:07:58 10° NNE
SL-16 R/B 3.9 20:56:43 10° WSW 21:01:52 34° NW 21:07:02 10° NNE
ERBS 2.9 20:58:49 10° NW 21:01:57 50° N 21:01:57 50° N
CZ-2D R/B 4.2 21:00:07 17° S 21:02:51 48° W 21:06:39 10° NNW
Cosmos 2026 Rocket 3.8 20:58:00 10° N 21:04:06 73° E 21:07:12 31° SSE
Cosmos 1805 Rocket 3.9 20:59:47 10° N 21:03:44 48° ENE 21:03:44 48° ENE
H-2A R/B 3.4 21:06:03 28° NE 21:06:03 28° NE 21:09:05 10° N
Cosmos 1302 Rocket 4.4 21:00:08 10° NNW 21:05:08 43° ENE 21:05:28 43° ENE
ARGOS 4.5 21:05:49 24° NE 21:05:49 24° NE 21:09:40 10° N
CENTAUR R/B 2.5 21:01:54 10° SSW 21:07:54 57° ESE 21:14:41 10° NE
Cosmos 1634 Rocket 3.9 21:04:02 10° S 21:10:16 84° E 21:16:31 10° N
SPOT 5 3.9 21:13:46 28° NNE 21:13:46 28° NNE 21:16:25 10° N
Cosmos 1048 Rocket 4.2 21:08:37 10° SSW 21:13:54 72° WNW 21:19:09 10° NNE
Cosmos 1269 Rocket 4.5 21:09:25 10° SW 21:14:39 62° WNW 21:19:55 10° NNE
NOSS 3-2 (C) 4.3 21:09:53 10° WSW 21:16:00 53° NW 21:22:47 10° NE
H-2A R/B 4.3 21:14:25 17° SSW 21:16:57 35° W 21:20:32 10° NNW
Cosmos 1633 Rocket 4.3 21:13:13 10° N 21:15:52 30° NNE 21:15:52 30° NNE
Cosmos 2151 3.3 21:14:17 10° NNW 21:18:29 64° W 21:19:18 51° SSW
Cosmos 2221 3.9 21:21:28 28° NNE 21:21:28 28° NNE 21:23:37 10° NNE
ISS -0.4 21:16:47 10° SW 21:16:49 10° SW 21:16:49 10° SW
Envisat 2.8 21:19:33 67° ESE 21:20:02 73° ENE 21:25:08 10° N
Cosmos 2058 3.0 21:16:34 10° N 21:20:16 71° NNW 21:20:16 71° NNW
YAOGAN 11 4.0 21:21:01 82° N 21:21:01 82° N 21:25:09 10° NNW
ALOS 4.1 21:22:25 10° SSW 21:26:27 28° W 21:30:30 10° NW
H-2A R/B 3.9 21:32:02 18° NE 21:32:02 18° NE 21:34:12 10° NNE
CZ-4C R/B 4.3 21:26:37 10° WNW 21:31:27 25° NNW 21:36:50 10° NE
Meteor 2-20 Rocket 4.3 21:32:01 10° N 21:38:12 68° ENE 21:38:24 68° E
Meteor 2-20 4.3 21:32:00 10° N 21:38:13 83° E 21:39:06 67° SSE
Cosmos 158 Rocket 4.0 21:33:41 10° SSW 21:38:33 70° WNW 21:43:27 10° NNE
Cosmos 2369 Rocket 3.3 21:33:55 10° NW 21:39:10 40° WSW 21:41:34 27° SSW
Cosmos 1943 Rocket 2.0 21:33:35 10° NNW 21:39:15 83° WSW 21:39:39 76° S
USA 215 3.2 21:37:00 27° NE 21:40:53 82° NNW 21:47:26 10° WSW
Cosmos 1666 Rocket 4.4 21:38:36 10° N 21:41:44 45° N 21:41:44 45° N
Cosmos 1943 3.3 21:38:03 10° SW 21:43:41 73° WNW 21:49:20 10° NNE
MetOp-B 4.4 21:50:42 60° NNE 21:50:42 60° NNE 21:55:11 10° N
SeaSat 1 3.6 21:45:08 10° NNE 21:55:13 - SW 21:47:51 33° NNE
Aureole 3 4.2 21:47:44 10° N 21:54:11 82° W 21:54:11 82° W
ERS-1 Rocket 3.6 21:55:22 49° WSW 21:55:45 50° W 22:00:40 10° NNW
Terra 4.0 22:14:49 18° NNE 22:14:49 18° NNE 22:16:12 10° N
BREEZE-M DEB (TANK) 4.2 22:08:20 10° W 22:14:54 57° WNW 22:14:54 57° WNW
BREEZE-M DEB (TANK) 4.3 22:00:01 10° W 22:18:49 85° N 22:19:12 80° NE
ATLAS 5 CENTAUR R/B 4.0 22:21:37 10° WNW 22:25:48 24° NNW 22:29:27 13° NNE
H-2A R/B 4.4 22:43:12 22° NW 22:43:12 22° NW 22:45:11 10° NNW
ARGOS 4.5 22:47:20 37° NW 22:47:20 37° NW 22:50:40 10° NNW
CENTAUR R/B 3.6 22:52:45 10° WSW 22:58:51 44° NNW 23:05:45 10° NE
H-2A R/B 4.2 23:12:41 23° NNW 23:12:41 23° NNW 23:14:33 10° NNW
Cosmos 1980 Rocket 4.3 23:06:19 10° N 23:08:42 20° N 23:08:42 20° N
CZ-4C R/B 4.5 23:17:16 10° NW 23:22:13 23° N 23:23:47 21° NNE
USA 215 4.1 23:24:24 44° NNW 23:24:24 44° NNW 23:29:42 10° W
